Location: Molalla
(45.1473°N, 122.5770°W)
Time: 00:14:31
(UTC-08:00)

Vanguard 2 Rocket - All Passes

Search period start: 18 November 2019 00:00
Search period end: 28 November 2019 00:00
Orbit: 554 x 3326 km, 32.9° (Epoch: 17 November)

Date Brightness Start Highest point End Pass type
(mag) Time Alt. Az. Time Alt. Az. Time Alt. Az.
18 Nov - 01:52:25 10° SSW 01:55:38 19° SSE 01:59:42 10° ESE visible
18 Nov - 04:03:00 10° WSW 04:07:51 28° S 04:15:16 10° SE visible
18 Nov - 06:15:17 10° WSW 06:21:11 22° SSW 06:29:41 10° SSE visible
19 Nov - 00:54:54 10° S 00:56:39 12° SSE 00:58:35 10° SE night (unlit)
19 Nov - 03:04:27 10° SW 03:08:32 25° S 03:14:22 10° ESE visible
19 Nov - 05:16:10 10° WSW 05:21:22 24° S 05:29:02 10° SE visible
19 Nov - 07:31:22 10° SW 07:35:10 13° SSW 07:39:40 10° S daylight
20 Nov - 02:06:04 10° SW 02:09:24 21° SSE 02:13:43 10° ESE visible
20 Nov - 04:17:18 10° WSW 04:21:49 24° S 04:28:21 10° SE visible
20 Nov - 06:30:50 10° SW 06:35:10 15° SSW 06:40:40 10° S visible
21 Nov - 01:07:53 10° SSW 01:10:23 16° SSE 01:13:14 10° SE night (unlit)
21 Nov - 03:18:36 10° SW 03:22:28 23° S 03:27:48 10° SE visible
21 Nov - 05:31:12 10° SW 05:35:23 17° SSW 05:40:54 10° SSE visible
22 Nov - 00:10:17 10° S 00:11:21 11° SSE 00:12:28 10° SE night (unlit)
22 Nov - 02:20:01 10° SW 02:23:16 20° S 02:27:27 10° SE visible
22 Nov - 04:32:00 10° SW 04:35:49 18° S 04:40:52 10° SSE visible
23 Nov - 01:21:29 10° SW 01:24:12 17° S 01:27:19 10° SE night (unlit)
23 Nov - 03:33:04 10° SW 03:36:26 18° S 03:40:47 10° SE visible
24 Nov - 00:23:02 10° SSW 00:25:09 14° S 00:27:22 10° SE night (unlit)
24 Nov - 02:34:14 10° SW 02:37:12 18° S 02:40:49 10° SE visible
24 Nov - 04:47:58 10° SSW 04:49:49 11° SSW 04:51:55 10° S visible
24 Nov - 23:24:46 10° S 23:26:06 11° SSE 23:27:24 10° SSE night (unlit)
25 Nov - 01:35:27 10° SW 01:38:04 17° S 01:41:04 10° SE night (unlit)
25 Nov - 03:48:17 10° SW 03:50:24 12° SSW 03:52:51 10° SSE visible
26 Nov - 00:36:36 10° SW 00:39:01 16° S 00:41:31 10° SE night (unlit)
26 Nov - 02:49:00 10° SW 02:51:08 13° S 02:53:35 10° SSE visible
26 Nov - 23:37:37 10° SSW 23:39:57 14° S 23:42:12 10° SE night (unlit)
27 Nov - 01:49:49 10° SW 01:51:59 14° S 01:54:21 10° SSE night (unlit)
27 Nov - 22:38:29 10° SSW 22:40:51 14° S 22:42:59 10° SE night (unlit)
